Needles, CA

9:08 AM PDT on July 23, 2017 (GMT -0700)
Needles

Weather History for KEED - July, 2013

Change the Weather History Date:

Thursday, July 25, 2013

  Actual Average Record
Temperature  
Mean Temperature 102 °F 97 °F  
Max Temperature 111 °F 109 °F 120 °F (1943)
Min Temperature 93 °F 85 °F 64 °F (1918)
Degree Days  
Heating Degree Days 0    
Cooling Degree Days 37    
Growing Degree Days 52 (Base 50)    
Moisture  
Dew Point 59 °F    
Average Humidity 25    
Maximum Humidity 33    
Minimum Humidity 15    
Precipitation  
Precipitation 0.00 in 0.00 in 1.40 in (1909)
Month to date precipitation 0.12  
Year to date precipitation 2.50  
Sea Level Pressure  
Sea Level Pressure 29.71 in    
Wind  
Wind Speed 10 mph (SSW)    
Max Wind Speed 23 mph    
Max Gust Speed 28 mph    
Visibility 10 miles    
Events      
T = Trace of Precipitation, MM = Missing Value Source: NWS Daily Summary

Daily Weather History Graph

Daily Weather History Graph

Search for Another Location

Airport or City:

Trip Planner

Search our weather history database for the weather conditions in past years. The results will help you decide how hot, cold, wet, or windy it might be!

Date:

Astronomy

Jul. 25, 2013 Rise Set
Actual Time 5:43 AM PDT 7:46 PM PDT
Civil Twilight 5:15 AM PDT 8:14 PM PDT
Nautical Twilight 4:40 AM PDT 8:48 PM PDT
Astronomical Twilight 4:04 AM PDT 9:25 PM PDT
Moon 9:41 PM PDT (7/25) 9:06 AM PDT (7/25)
Length of Visible Light 14h 58m
Length of Day
14h 02m
Waning Gibbous, 87% of the Moon is Illuminated
Jul 25
Waning Gibbous
Jul 29
Last Quarter
Aug 6
New
Aug 14
First Quarter
Aug 20
Full

Hourly Weather History & Observations

Time (PDT) Temp. Heat Index Dew Point Humidity Pressure Visibility Wind Dir Wind Speed Gust Speed Precip Events Conditions
12:56 AM 100.0 °F 100.2 °F 59.0 °F 26% 29.63 in 10.0 mi SW 11.5 mph - N/A   Partly Cloudy
1:56 AM 100.0 °F 99.7 °F 57.9 °F 25% 29.65 in 10.0 mi Variable 4.6 mph 16.1 mph N/A   Partly Cloudy
2:56 AM 97.0 °F 96.1 °F 57.9 °F 27% 29.65 in 10.0 mi WSW 4.6 mph - N/A   Clear
3:56 AM 97.0 °F 96.5 °F 59.0 °F 28% 29.65 in 10.0 mi WSW 6.9 mph - N/A   Clear
4:56 AM 93.9 °F 93.6 °F 60.1 °F 32% 29.67 in 10.0 mi WSW 6.9 mph - N/A   Clear
5:56 AM 95.0 °F 95.6 °F 62.1 °F 33% 29.69 in 10.0 mi SW 8.1 mph - N/A   Clear
6:56 AM 95.0 °F 95.6 °F 62.1 °F 33% 29.71 in 10.0 mi SW 5.8 mph - N/A   Clear
7:56 AM 97.0 °F 97.8 °F 62.1 °F 31% 29.73 in 10.0 mi East 4.6 mph - N/A   Clear
8:56 AM 100.0 °F 101.2 °F 61.0 °F 28% 29.75 in 10.0 mi SSE 9.2 mph - N/A   Clear
9:56 AM 102.0 °F 102.7 °F 60.1 °F 25% 29.75 in 10.0 mi SSE 11.5 mph - N/A   Clear
10:56 AM 105.1 °F 104.4 °F 57.0 °F 20% 29.75 in 10.0 mi South 11.5 mph 18.4 mph N/A   Clear
11:56 AM 106.0 °F 103.9 °F 53.1 °F 17% 29.75 in 10.0 mi South 13.8 mph 21.9 mph N/A   Clear
12:56 PM 108.0 °F 106.6 °F 54.0 °F 17% 29.74 in 10.0 mi South 16.1 mph 24.2 mph N/A   Partly Cloudy
1:56 PM 109.0 °F 107.4 °F 54.0 °F 16% 29.71 in 10.0 mi SSW 11.5 mph 24.2 mph N/A   Scattered Clouds
2:56 PM 109.9 °F 107.9 °F 53.1 °F 15% 29.69 in 10.0 mi SSW 15.0 mph 23.0 mph N/A   Partly Cloudy
3:56 PM 111.0 °F 110.1 °F 55.9 °F 16% 29.68 in 10.0 mi South 15.0 mph 24.2 mph N/A   Clear
4:56 PM 106.0 °F 106.4 °F 59.0 °F 21% 29.69 in 10.0 mi SSW 21.9 mph 26.5 mph N/A   Clear
5:56 PM 105.1 °F 106.4 °F 60.1 °F 23% 29.69 in 10.0 mi SSW 23.0 mph 27.6 mph N/A   Partly Cloudy
6:56 PM 102.9 °F 102.4 °F 57.0 °F 22% 29.72 in 10.0 mi SSW 19.6 mph 25.3 mph N/A   Clear
7:56 PM 102.0 °F 102.2 °F 59.0 °F 24% 29.73 in 10.0 mi SSW 17.3 mph - N/A   Clear
8:56 PM 100.0 °F 100.7 °F 60.1 °F 27% 29.77 in 10.0 mi SSW 13.8 mph - N/A   Partly Cloudy
9:56 PM 99.0 °F 99.5 °F 61.0 °F 28% 29.77 in 10.0 mi SW 12.7 mph - N/A   Clear
10:56 PM 97.0 °F 97.4 °F 61.0 °F 30% 29.77 in 10.0 mi SW 9.2 mph - N/A   Clear
11:56 PM 96.1 °F 96.4 °F 61.0 °F 31% 29.78 in 10.0 mi SSE 6.9 mph - N/A   Clear